Overview Statistics Trail Chart Weather Telemetry Raw packets
 

This is the latest recevied weather packets stored in our database for station/object KG7FOQ-13. If no packets are shown the sender has not sent any weather packets the latest 10 day(s).

<< 1 2 3 4 >>
Time Temp. Humidity Pressure Rain* Wind** Luminosity Snow
1788621313 14.44° C 67% 1018.4 hPa 0 mm - - -
1788621012 14.44° C 70% 1018.4 hPa 0 mm - - -
1788620712 13.33° C 72% 1018.4 hPa 0 mm - - -
1788620412 12.78° C 73% 1018.5 hPa 0 mm - - -
1788620111 12.22° C 75% 1018.4 hPa 0 mm - - -
1788619810 11.67° C 76% 1018.4 hPa 0 mm - - -
1788619510 11.11° C 78% 1018.2 hPa 0 mm - - -
1788619209 10.56° C 78% 1018.1 hPa 0 mm - - -
1788618909 10.56° C 78% 1018.1 hPa 0 mm - - -
1788618608 10° C 79% 1018.1 hPa 0 mm - - -
1788618308 10° C 79% 1018.1 hPa 0 mm - - -
1788618007 9.44° C 81% 1018.1 hPa 0 mm - - -
1788617707 8.89° C 82% 1018.1 hPa 0 mm - - -
1788617406 8.33° C 82% 1018 hPa 0 mm - - -
1788617106 8.33° C 83% 1017.9 hPa 0 mm - - -
1788616805 7.78° C 83% 1018 hPa 0 mm - - -
1788616505 7.78° C 83% 1018 hPa 0 mm - - -
1788616204 7.78° C 84% 1018 hPa 0 mm - - -
1788615904 7.78° C 83% 1017.9 hPa 0 mm - - -
1788615601 7.78° C 83% 1017.8 hPa 0 mm - - -
1788615301 7.78° C 84% 1017.8 hPa 0 mm - - -
1788615000 7.22° C 84% 1017.7 hPa 0 mm - - -
1788614699 7.22° C 85% 1017.5 hPa 0 mm - - -
1788614399 7.22° C 85% 1017.5 hPa 0 mm - - -
1788614099 6.67° C 86% 1017.5 hPa 0 mm - - -

* Rain latest hour (hover to see other rain measurements)
** Current wind speed in m/s (hover to see current wind gust speed)